Location: Courçay
(47.2523°N, 0.8761°E)
Time: 23:52:53
(UTC+00:00)

Cosmos 1943 Rocket - Pass Details

Date: 18 November 2025
Orbit: 812 x 841 km, 71.0° (Epoch: 05 December)

Event Time Altitude Azimuth Distance (km) Brightness Sun altitude
Rises 19:05:56 0° 247° (WSW) 3,375 6.3 -28.3°
Reaches altitude 10° 19:08:51 10° 261° (W) 2,440 5.5 -28.8°
Maximum altitude 19:13:19 24° 314° (NW) 1,665 4.1 -29.5°
Enters shadow 19:16:45 14° 359° (N) 2,155 4.3 -30.1°
